CCA310 ZSPD-RKPC

Flight info

Callsign CCA310
Flight time 1h 5m
Altitude 39000
Route LAM92D LAMEN A593 SADLI Y590 ELGEP Y722 SOSDO SOSDO2M
Aircraft A20N/M-SDE2E3FGHIRWXY/LB1

Departure

Time 2026-04-30 11:54
Airport Shanghai Pudong International Airport (ZSPD)

Arrival

Time 2026-04-30 12:59
Airport Jeju International Airport (RKPC)
Time Latitude Longitude Altitude Speed Heading
2026-04-30 11:26 31.14634 121.80027 26 ft 0 kts 252°
2026-04-30 11:36 31.14636 121.80035 26 ft 3 kts 252°
2026-04-30 11:36 31.14642 121.80058 27 ft 3 kts 249°
2026-04-30 11:36 31.14648 121.80067 30 ft 0 kts 207°
2026-04-30 11:37 31.14662 121.80072 27 ft 3 kts 181°
2026-04-30 11:37 31.14676 121.80071 27 ft 0 kts 164°
2026-04-30 11:44 31.14673 121.80071 26 ft 3 kts 164°
2026-04-30 11:44 31.14610 121.80093 26 ft 16 kts 160°
2026-04-30 11:44 31.14499 121.80124 27 ft 16 kts 206°
2026-04-30 11:44 31.14459 121.80013 26 ft 15 kts 252°
2026-04-30 11:45 31.14426 121.79896 29 ft 15 kts 252°
2026-04-30 11:45 31.14371 121.79819 28 ft 13 kts 175°
2026-04-30 11:45 31.14287 121.79848 26 ft 13 kts 162°
2026-04-30 11:45 31.14207 121.79879 26 ft 10 kts 162°
2026-04-30 11:46 31.14170 121.79900 26 ft 1 kts 99°
2026-04-30 11:46 31.14196 121.79962 26 ft 13 kts 63°
2026-04-30 11:46 31.14230 121.80057 26 ft 12 kts 71°
2026-04-30 11:46 31.14254 121.80149 26 ft 12 kts 73°
2026-04-30 11:47 31.14278 121.80242 27 ft 12 kts 73°
2026-04-30 11:47 31.14303 121.80334 27 ft 12 kts 73°
2026-04-30 11:47 31.14328 121.80424 28 ft 11 kts 71°
2026-04-30 11:47 31.14353 121.80512 27 ft 11 kts 72°
2026-04-30 11:48 31.14384 121.80621 26 ft 19 kts 72°
2026-04-30 11:48 31.14426 121.80774 27 ft 19 kts 72°
2026-04-30 11:48 31.14467 121.80924 26 ft 19 kts 72°
2026-04-30 11:48 31.14509 121.81072 26 ft 19 kts 72°
2026-04-30 11:49 31.14548 121.81215 27 ft 13 kts 71°
2026-04-30 11:49 31.14565 121.81273 27 ft 2 kts 71°
2026-04-30 11:50 31.14569 121.81289 26 ft 10 kts 72°
2026-04-30 11:50 31.14521 121.81376 26 ft 9 kts 114°
2026-04-30 11:50 31.14511 121.81444 27 ft 9 kts 99°
2026-04-30 11:51 31.14464 121.81495 26 ft 17 kts 162°
2026-04-30 11:51 31.14328 121.81546 26 ft 21 kts 162°
2026-04-30 11:51 31.14186 121.81600 27 ft 21 kts 162°
2026-04-30 11:51 31.14044 121.81654 30 ft 22 kts 162°
2026-04-30 11:52 31.13901 121.81709 28 ft 22 kts 162°
2026-04-30 11:52 31.13757 121.81765 26 ft 22 kts 161°
2026-04-30 11:52 31.13612 121.81818 25 ft 22 kts 162°
2026-04-30 11:52 31.13434 121.81884 26 ft 32 kts 161°
2026-04-30 11:53 31.13217 121.81967 28 ft 33 kts 162°
2026-04-30 11:53 31.13112 121.82103 25 ft 24 kts 72°
2026-04-30 11:53 31.13165 121.82203 25 ft 8 kts
2026-04-30 11:53 31.13224 121.82186 25 ft 17 kts 338°
2026-04-30 11:54 31.13561 121.82058 25 ft 86 kts 342°
2026-04-30 11:54 31.14342 121.81764 26 ft 149 kts 342°
2026-04-30 11:54 31.15431 121.81367 408 ft 166 kts 344°
2026-04-30 11:54 31.16563 121.81186 1139 ft 163 kts
2026-04-30 11:55 31.17299 121.81252 1721 ft 161 kts
2026-04-30 11:55 31.18488 121.81434 2187 ft 186 kts
2026-04-30 11:55 31.19865 121.81674 2600 ft 217 kts
2026-04-30 11:55 31.21479 121.81959 2988 ft 248 kts
2026-04-30 11:56 31.23215 121.82268 3883 ft 255 kts
2026-04-30 11:56 31.24968 121.82580 5033 ft 253 kts
2026-04-30 11:56 31.26711 121.82889 6134 ft 253 kts
2026-04-30 11:56 31.28462 121.83198 7115 ft 255 kts
2026-04-30 11:57 31.30241 121.83510 7978 ft 261 kts
2026-04-30 11:57 31.32060 121.83828 8871 ft 267 kts
2026-04-30 11:57 31.33919 121.84153 9741 ft 272 kts
2026-04-30 11:57 31.35814 121.84488 10571 ft 278 kts
2026-04-30 11:58 31.37644 121.85366 11317 ft 301 kts 30°
2026-04-30 11:58 31.39081 121.87342 11667 ft 339 kts 56°
2026-04-30 11:58 31.40146 121.89881 11977 ft 363 kts 60°
2026-04-30 11:58 31.41269 121.92593 12479 ft 376 kts 58°
2026-04-30 11:59 31.42494 121.95338 13220 ft 382 kts 56°
2026-04-30 11:59 31.43791 121.98087 13987 ft 388 kts 55°
2026-04-30 11:59 31.45134 122.00857 14668 ft 394 kts 55°
2026-04-30 11:59 31.46486 122.03682 15370 ft 400 kts 55°
2026-04-30 12:00 31.47856 122.06544 16062 ft 405 kts 54°
2026-04-30 12:00 31.49155 122.09248 16720 ft 410 kts 54°
2026-04-30 12:00 31.50565 122.12176 17393 ft 416 kts 54°
2026-04-30 12:00 31.51996 122.15145 18077 ft 421 kts 54°
2026-04-30 12:01 31.53432 122.18124 18701 ft 426 kts 54°
2026-04-30 12:01 31.54898 122.21164 19234 ft 432 kts 54°
2026-04-30 12:01 31.56387 122.24253 19764 ft 438 kts 54°
2026-04-30 12:01 31.57892 122.27380 20297 ft 443 kts 54°
2026-04-30 12:02 31.59418 122.30550 20816 ft 449 kts 54°
2026-04-30 12:02 31.60962 122.33763 21330 ft 454 kts 54°
2026-04-30 12:02 31.62354 122.37117 21833 ft 468 kts 66°
2026-04-30 12:02 31.63122 122.40879 22328 ft 478 kts 77°
2026-04-30 12:03 31.63647 122.44773 22819 ft 484 kts 79°
2026-04-30 12:03 31.64638 122.52672 23764 ft 494 kts 79°
2026-04-30 12:03 31.65151 122.56678 24158 ft 499 kts 79°
2026-04-30 12:04 31.65666 122.60663 24546 ft 503 kts 79°
2026-04-30 12:04 31.66196 122.64733 24942 ft 506 kts 79°
2026-04-30 12:04 31.66733 122.68839 25320 ft 510 kts 80°
2026-04-30 12:04 31.67274 122.72969 25688 ft 514 kts 80°
2026-04-30 12:05 31.67820 122.77138 26048 ft 518 kts 80°
2026-04-30 12:05 31.68379 122.81320 26393 ft 522 kts 80°
2026-04-30 12:05 31.68951 122.85565 26753 ft 526 kts 80°
2026-04-30 12:05 31.69524 122.89829 27075 ft 530 kts 81°
2026-04-30 12:06 31.70100 122.94123 27392 ft 533 kts 81°
2026-04-30 12:06 31.70675 122.98431 27696 ft 537 kts 81°
2026-04-30 12:06 31.71254 123.02776 28006 ft 540 kts 81°
2026-04-30 12:06 31.71836 123.07157 28298 ft 544 kts 81°
2026-04-30 12:07 31.72411 123.11495 28572 ft 547 kts 82°
2026-04-30 12:07 31.72997 123.15928 28856 ft 550 kts 82°
2026-04-30 12:07 31.73583 123.20380 29136 ft 554 kts 82°
2026-04-30 12:07 31.74172 123.24861 29401 ft 557 kts 82°
2026-04-30 12:08 31.74762 123.29366 29672 ft 560 kts 82°
2026-04-30 12:08 31.75355 123.33898 30038 ft 561 kts 83°
2026-04-30 12:08 31.75947 123.38443 30379 ft 562 kts 83°
2026-04-30 12:08 31.76530 123.42980 30725 ft 561 kts 84°
2026-04-30 12:09 31.76771 123.47532 31102 ft 556 kts 96°
2026-04-30 12:09 31.76271 123.51990 31443 ft 545 kts 110°
2026-04-30 12:09 31.75135 123.56209 31788 ft 538 kts 117°
2026-04-30 12:09 31.73830 123.60322 32125 ft 536 kts 118°
2026-04-30 12:10 31.72504 123.64403 32446 ft 536 kts 118°
2026-04-30 12:10 31.71168 123.68517 32772 ft 536 kts 118°
2026-04-30 12:10 31.69859 123.72562 33098 ft 536 kts 118°
2026-04-30 12:10 31.68538 123.76655 33431 ft 535 kts 118°
2026-04-30 12:11 31.67221 123.80738 33752 ft 534 kts 118°
2026-04-30 12:11 31.65904 123.84821 34075 ft 534 kts 118°
2026-04-30 12:11 31.64591 123.88890 34342 ft 533 kts 118°
2026-04-30 12:11 31.63283 123.92957 34602 ft 533 kts 117°
2026-04-30 12:12 31.62251 123.97151 34842 ft 542 kts 107°
2026-04-30 12:12 31.61900 124.01604 35064 ft 552 kts 92°
2026-04-30 12:12 31.62361 124.06113 35278 ft 557 kts 80°
2026-04-30 12:12 31.63192 124.10554 35506 ft 558 kts 78°
2026-04-30 12:13 31.64140 124.14900 35727 ft 558 kts 76°
2026-04-30 12:13 31.65176 124.19352 35931 ft 558 kts 76°
2026-04-30 12:13 31.66210 124.23739 36142 ft 558 kts 76°
2026-04-30 12:13 31.67237 124.28138 36337 ft 558 kts 76°
2026-04-30 12:14 31.68237 124.32497 36522 ft 559 kts 77°
2026-04-30 12:14 31.69232 124.36910 36711 ft 559 kts 77°
2026-04-30 12:14 31.70215 124.41326 36897 ft 559 kts 78°
2026-04-30 12:14 31.71192 124.45755 37078 ft 559 kts 78°
2026-04-30 12:15 31.72162 124.50168 37254 ft 559 kts 78°
2026-04-30 12:15 31.73133 124.54598 37423 ft 560 kts 78°
2026-04-30 12:15 31.74104 124.59035 37583 ft 560 kts 78°
2026-04-30 12:15 31.75073 124.63466 37754 ft 560 kts 78°
2026-04-30 12:16 31.76041 124.67896 37911 ft 561 kts 78°
2026-04-30 12:16 31.77011 124.72341 38072 ft 561 kts 79°
2026-04-30 12:16 31.77976 124.76773 38237 ft 561 kts 79°
2026-04-30 12:16 31.78947 124.81239 38376 ft 562 kts 79°
2026-04-30 12:17 31.80880 124.90150 38666 ft 563 kts 79°
2026-04-30 12:17 31.81836 124.94608 38815 ft 562 kts 81°
2026-04-30 12:17 31.82390 124.99117 38933 ft 552 kts 94°
2026-04-30 12:18 31.82260 125.03568 39053 ft 540 kts 105°
2026-04-30 12:18 31.81758 125.07923 39209 ft 535 kts 108°
2026-04-30 12:18 31.81131 125.12228 39342 ft 532 kts 109°
2026-04-30 12:18 31.80447 125.16419 39477 ft 530 kts 110°
2026-04-30 12:19 31.79711 125.20731 39606 ft 529 kts 110°
2026-04-30 12:19 31.78988 125.24924 39737 ft 529 kts 110°
2026-04-30 12:19 31.78264 125.29156 39863 ft 528 kts 110°
2026-04-30 12:19 31.77549 125.33390 39982 ft 528 kts 110°
2026-04-30 12:20 31.76840 125.37620 40103 ft 527 kts 110°
2026-04-30 12:20 31.76139 125.41836 40227 ft 526 kts 110°
2026-04-30 12:20 31.75438 125.46064 40335 ft 526 kts 110°
2026-04-30 12:20 31.74737 125.50282 40449 ft 525 kts 110°
2026-04-30 12:21 31.73337 125.58693 40650 ft 524 kts 110°
2026-04-30 12:21 31.72699 125.67333 40789 ft 543 kts 90°
2026-04-30 12:22 31.74113 125.76110 40947 ft 550 kts 80°
2026-04-30 12:22 31.76200 125.84760 41052 ft 554 kts 69°
2026-04-30 12:23 31.77958 125.88800 41057 ft 554 kts 56°
2026-04-30 12:23 31.80323 125.92348 41058 ft 550 kts 42°
2026-04-30 12:23 31.83174 125.95184 41060 ft 541 kts 27°
2026-04-30 12:23 31.86446 125.97267 41059 ft 530 kts 15°
2026-04-30 12:24 31.93303 126.00419 41056 ft 528 kts 11°
2026-04-30 12:24 32.00267 126.03269 41056 ft 530 kts 11°
2026-04-30 12:25 32.07228 126.06131 40919 ft 531 kts 11°
2026-04-30 12:25 32.10721 126.07590 40686 ft 531 kts 12°
2026-04-30 12:25 32.14203 126.09056 40453 ft 532 kts 12°
2026-04-30 12:26 32.17698 126.10534 40220 ft 534 kts 12°
2026-04-30 12:26 32.21194 126.12017 39994 ft 535 kts 12°
2026-04-30 12:26 32.24673 126.13496 39773 ft 537 kts 11°
2026-04-30 12:26 32.28196 126.14994 39550 ft 538 kts 11°
2026-04-30 12:27 32.31734 126.16501 39328 ft 539 kts 11°
2026-04-30 12:27 32.35271 126.18007 39107 ft 541 kts 11°
2026-04-30 12:27 32.38819 126.19520 38607 ft 543 kts 11°
2026-04-30 12:27 32.42404 126.21043 37516 ft 553 kts 11°
2026-04-30 12:28 32.46051 126.22589 36472 ft 562 kts 12°
2026-04-30 12:28 32.49759 126.24164 35654 ft 566 kts 12°
2026-04-30 12:28 32.53432 126.25733 35455 ft 555 kts 12°
2026-04-30 12:28 32.57030 126.27284 35284 ft 543 kts 12°
2026-04-30 12:29 32.60550 126.28817 35131 ft 532 kts 12°
2026-04-30 12:29 32.63981 126.30325 35023 ft 522 kts 12°
2026-04-30 12:29 32.67351 126.31821 34912 ft 510 kts 12°
2026-04-30 12:29 32.70590 126.33273 34838 ft 499 kts 13°
2026-04-30 12:30 32.73804 126.34731 34769 ft 488 kts 13°
2026-04-30 12:30 32.76933 126.36166 34720 ft 477 kts 13°
2026-04-30 12:30 32.79987 126.37585 34673 ft 465 kts 13°
2026-04-30 12:30 32.82956 126.38982 34626 ft 454 kts 13°
2026-04-30 12:31 32.85853 126.40364 34584 ft 442 kts 13°
2026-04-30 12:31 32.88662 126.41723 34534 ft 430 kts 13°
2026-04-30 12:31 32.91393 126.43065 34485 ft 419 kts 13°
2026-04-30 12:31 32.94049 126.44392 34418 ft 407 kts 14°
2026-04-30 12:32 32.96620 126.45700 34326 ft 396 kts 14°
2026-04-30 12:32 32.99111 126.46991 34217 ft 384 kts 14°
2026-04-30 12:32 33.01518 126.48266 34077 ft 374 kts 14°
2026-04-30 12:32 33.03902 126.49546 34031 ft 376 kts 15°
2026-04-30 12:33 33.06252 126.50842 34270 ft 367 kts 16°
2026-04-30 12:33 33.08528 126.52152 34430 ft 362 kts 17°
2026-04-30 12:33 33.10802 126.53512 34277 ft 371 kts 19°
2026-04-30 12:33 33.13123 126.54951 34121 ft 379 kts 20°
2026-04-30 12:34 33.15403 126.56431 34235 ft 375 kts 22°
2026-04-30 12:34 33.17557 126.57912 34447 ft 368 kts 24°
2026-04-30 12:34 33.21920 126.61162 34254 ft 380 kts 27°
2026-04-30 12:35 33.26283 126.64761 34408 ft 376 kts 31°
2026-04-30 12:35 33.30425 126.68587 34392 ft 381 kts 36°
2026-04-30 12:36 33.34476 126.72752 34396 ft 382 kts 40°
2026-04-30 12:36 33.36407 126.74920 34530 ft 378 kts 42°
2026-04-30 12:36 33.38272 126.77146 34493 ft 381 kts 44°
2026-04-30 12:37 33.40108 126.79466 34379 ft 387 kts 47°
2026-04-30 12:37 33.41905 126.81869 34396 ft 386 kts 49°
2026-04-30 12:37 33.43609 126.84281 34525 ft 381 kts 51°
2026-04-30 12:37 33.45256 126.86754 34554 ft 380 kts 53°
2026-04-30 12:38 33.48400 126.91918 34405 ft 386 kts 58°
2026-04-30 12:38 33.51273 126.97265 34576 ft 378 kts 63°
2026-04-30 12:39 33.53863 127.02806 34448 ft 383 kts 68°
2026-04-30 12:39 33.56822 127.08372 33047 ft 440 kts 37°
2026-04-30 12:40 33.59547 127.10376 31616 ft 479 kts 13°
2026-04-30 12:40 33.62850 127.11549 30515 ft 515 kts
2026-04-30 12:40 33.66299 127.13155 29478 ft 559 kts 19°
2026-04-30 12:40 33.69785 127.15521 28867 ft 575 kts 41°
2026-04-30 12:41 33.72177 127.18620 32034 ft 497 kts 45°
2026-04-30 12:41 33.74475 127.21915 29457 ft 547 kts 58°
2026-04-30 12:41 33.76346 127.26141 27545 ft 572 kts 77°
2026-04-30 12:41 33.76878 127.29112 28415 ft 533 kts 92°
2026-04-30 12:42 33.76607 127.34805 27624 ft 509 kts 113°
2026-04-30 12:42 33.75337 127.38837 26160 ft 516 kts 124°
2026-04-30 12:42 33.74345 127.41441 25592 ft 517 kts 124°
2026-04-30 12:42 33.72183 127.46522 23425 ft 497 kts 131°
2026-04-30 12:43 33.70963 127.48830 22234 ft 490 kts 131°
2026-04-30 12:43 33.69190 127.52211 21485 ft 458 kts 130°
2026-04-30 12:43 33.67526 127.55431 18887 ft 468 kts 129°
2026-04-30 12:43 33.65823 127.58643 18181 ft 439 kts 131°
2026-04-30 12:44 33.63936 127.61342 17630 ft 405 kts 142°
2026-04-30 12:44 33.61828 127.63408 16886 ft 380 kts 153°
2026-04-30 12:44 33.59527 127.64825 15889 ft 365 kts 165°
2026-04-30 12:44 33.57138 127.65558 14956 ft 353 kts 177°
2026-04-30 12:45 33.54757 127.65635 14524 ft 330 kts 188°
2026-04-30 12:45 33.52568 127.65192 14210 ft 307 kts 198°
2026-04-30 12:45 33.50625 127.64347 13951 ft 287 kts 207°
2026-04-30 12:45 33.48943 127.63198 13713 ft 270 kts 216°
2026-04-30 12:46 33.47527 127.61831 13490 ft 254 kts 224°
2026-04-30 12:46 33.46357 127.60308 13162 ft 244 kts 231°
2026-04-30 12:46 33.45405 127.58644 12682 ft 242 kts 238°
2026-04-30 12:46 33.44676 127.56858 12158 ft 242 kts 248°
2026-04-30 12:47 33.44361 127.54874 11626 ft 247 kts 269°
2026-04-30 12:47 33.44640 127.52834 11141 ft 249 kts 280°
2026-04-30 12:47 33.45104 127.50837 10671 ft 248 kts 282°
2026-04-30 12:47 33.45588 127.48861 10214 ft 247 kts 283°
2026-04-30 12:48 33.46065 127.46893 9749 ft 245 kts 282°
2026-04-30 12:48 33.46531 127.44946 9282 ft 242 kts 283°
2026-04-30 12:48 33.46994 127.43021 8804 ft 239 kts 283°
2026-04-30 12:48 33.47452 127.41117 8341 ft 236 kts 284°
2026-04-30 12:49 33.47900 127.39223 7869 ft 234 kts 284°
2026-04-30 12:49 33.48333 127.37378 7558 ft 234 kts 285°
2026-04-30 12:49 33.48772 127.35498 7314 ft 235 kts 285°
2026-04-30 12:49 33.49208 127.33613 7071 ft 234 kts 285°
2026-04-30 12:50 33.49641 127.31744 6824 ft 232 kts 286°
2026-04-30 12:50 33.50076 127.29881 6580 ft 232 kts 286°
2026-04-30 12:50 33.50508 127.28021 6339 ft 232 kts 287°
2026-04-30 12:50 33.50937 127.26161 6077 ft 231 kts 287°
2026-04-30 12:51 33.51363 127.24308 5823 ft 231 kts 287°
2026-04-30 12:51 33.51786 127.22459 5569 ft 229 kts 287°
2026-04-30 12:51 33.52206 127.20622 5313 ft 228 kts 287°
2026-04-30 12:51 33.52622 127.18801 5059 ft 226 kts 287°
2026-04-30 12:52 33.53034 127.16994 4911 ft 225 kts 288°
2026-04-30 12:52 33.53448 127.15181 4780 ft 225 kts 288°
2026-04-30 12:52 33.53905 127.13396 4659 ft 223 kts 290°
2026-04-30 12:52 33.54419 127.11607 4537 ft 243 kts 291°
2026-04-30 12:53 33.55042 127.09525 4384 ft 290 kts 291°
2026-04-30 12:53 33.55756 127.07137 4231 ft 319 kts 291°
2026-04-30 12:53 33.56534 127.04528 4080 ft 340 kts 291°
2026-04-30 12:53 33.57332 127.01843 4008 ft 342 kts 290°
2026-04-30 12:54 33.58131 126.99152 4003 ft 342 kts 291°
2026-04-30 12:54 33.58932 126.96462 4000 ft 342 kts 291°
2026-04-30 12:54 33.59729 126.93775 4003 ft 342 kts 290°
2026-04-30 12:54 33.60523 126.91093 4003 ft 342 kts 291°
2026-04-30 12:55 33.61321 126.88401 4002 ft 342 kts 291°
2026-04-30 12:55 33.62104 126.85755 4004 ft 341 kts 290°
2026-04-30 12:55 33.62492 126.82937 4002 ft 346 kts 271°
2026-04-30 12:55 33.62335 126.80052 4008 ft 346 kts 266°
2026-04-30 12:56 33.62074 126.77175 4003 ft 347 kts 265°
2026-04-30 12:56 33.61794 126.74297 4000 ft 347 kts 265°
2026-04-30 12:56 33.61511 126.71422 4000 ft 348 kts 265°
2026-04-30 12:56 33.61028 126.68570 3906 ft 350 kts 255°
2026-04-30 12:57 33.59988 126.65926 3451 ft 348 kts 241°
2026-04-30 12:57 33.58675 126.63631 2852 ft 326 kts 237°
2026-04-30 12:57 33.57439 126.61462 2380 ft 303 kts 240°
2026-04-30 12:57 33.56402 126.59362 1975 ft 283 kts 243°
2026-04-30 12:58 33.55416 126.57410 1594 ft 266 kts 241°
2026-04-30 12:58 33.54468 126.55584 1235 ft 249 kts 241°
2026-04-30 12:58 33.53611 126.53906 939 ft 221 kts 239°
2026-04-30 12:58 33.52855 126.52429 635 ft 196 kts 239°
2026-04-30 12:59 33.52183 126.51126 411 ft 169 kts 239°
2026-04-30 12:59 33.51610 126.49998 158 ft 154 kts 240°
2026-04-30 12:59 33.51086 126.48964 94 ft 129 kts 237°
2026-04-30 12:59 33.50744 126.48315 96 ft 49 kts 234°
2026-04-30 13:00 33.50567 126.48163 96 ft 27 kts 207°
2026-04-30 13:00 33.50523 126.48258 94 ft 19 kts 62°
2026-04-30 13:00 33.50593 126.48397 95 ft 20 kts 57°
2026-04-30 13:00 33.50667 126.48539 95 ft 20 kts 58°
2026-04-30 13:01 33.50742 126.48686 94 ft 21 kts 58°
2026-04-30 13:01 33.50821 126.48835 95 ft 22 kts 57°
2026-04-30 13:01 33.50898 126.48981 94 ft 22 kts 58°